• In Schweiz
  • Länderverzeichnis
  • Für 7 Tage
  • Wassertemperatur
  • Satellitenkarten
  • Wetterkarte
  • Widgets
  • user-avatar
    Anmelden

    Stündliche Wetter Sirykiv

    Heute, 20 September, Donnerstag

    Zeit Temperatur Niederschläge Wind Luftdruck Luftfeuchtigkeit
    00:00 +17°C° 0 mm 2 m/S 752 mmHg 73%
    01:00 +17°C° 0 mm 2 m/S 752 mmHg 75%
    02:00 +17°C° 0 mm 2 m/S 752 mmHg 77%
    03:00 +16°C° 0 mm 2 m/S 752 mmHg 78%
    04:00 +16°C° 0 mm 2 m/S 752 mmHg 80%
    05:00 +16°C° 0 mm 2 m/S 752 mmHg 82%
    06:00 +17°C° 0 mm 2 m/S 752 mmHg 78%
    07:00 +18°C° 0 mm 2 m/S 752 mmHg 74%
    08:00 +20°C° 0 mm 2 m/S 752 mmHg 70%
    09:00 +21°C° 0 mm 2 m/S 752 mmHg 65%
    10:00 +24°C° 0 mm 3 m/S 752 mmHg 59%
    11:00 +26°C° 0 mm 3 m/S 752 mmHg 54%
    12:00 +26°C° 0 mm 3 m/S 752 mmHg 51%
    13:00 +27°C° 0 mm 3 m/S 752 mmHg 49%
    14:00 +28°C° 0 mm 3 m/S 752 mmHg 46%
    15:00 +27°C° 0 mm 3 m/S 751 mmHg 50%
    16:00 +26°C° 0 mm 2 m/S 751 mmHg 53%
    17:00 +25°C° 0 mm 2 m/S 751 mmHg 57%
    18:00 +23°C° 0 mm 2 m/S 751 mmHg 60%
    19:00 +21°C° 0 mm 2 m/S 751 mmHg 63%
    20:00 +21°C° 0 mm 1 m/S 751 mmHg 66%
    21:00 +20°C° 0 mm 1 m/S 751 mmHg 68%
    22:00 +20°C° 0 mm 1 m/S 751 mmHg 69%
    23:00 +19°C° 0 mm 1 m/S 751 mmHg 70%

    Morgen, 21 September, Freitag

    Zeit Temperatur Niederschläge Wind Luftdruck Luftfeuchtigkeit
    00:00 +19°C° 0 mm 1 m/S 751 mmHg 72%
    01:00 +19°C° 0 mm 1 m/S 752 mmHg 73%
    02:00 +18°C° 0 mm 1 m/S 752 mmHg 75%
    03:00 +16°C° 0 mm 0 m/S 752 mmHg 76%
    04:00 +16°C° 0 mm 0 m/S 752 mmHg 78%
    05:00 +15°C° 0 mm 0 m/S 752 mmHg 80%
    06:00 +17°C° 0 mm 0 m/S 752 mmHg 75%
    07:00 +18°C° 0 mm 0 m/S 752 mmHg 71%
    08:00 +20°C° 0 mm 0 m/S 752 mmHg 66%
    09:00 +21°C° 0 mm 0 m/S 752 mmHg 61%
    10:00 +23°C° 0 mm 0 m/S 752 mmHg 56%
    11:00 +27°C° 0 mm 1 m/S 752 mmHg 52%
    12:00 +27°C° 0 mm 1 m/S 752 mmHg 49%
    13:00 +27°C° 0 mm 1 m/S 752 mmHg 46%
    14:00 +28°C° 0 mm 1 m/S 751 mmHg 43%
    15:00 +27°C° 0 mm 1 m/S 751 mmHg 46%
    16:00 +26°C° 0 mm 1 m/S 751 mmHg 50%
    17:00 +26°C° 0 mm 1 m/S 751 mmHg 53%
    18:00 +24°C° 0 mm 1 m/S 751 mmHg 55%
    19:00 +23°C° 0 mm 1 m/S 751 mmHg 58%
    20:00 +21°C° 0 mm 1 m/S 751 mmHg 61%
    21:00 +21°C° 0 mm 1 m/S 751 mmHg 62%
    22:00 +20°C° 0 mm 1 m/S 751 mmHg 63%
    23:00 +20°C° 0 mm 1 m/S 751 mmHg 64%

    übermorgen, 22 September, Samstag

    Zeit Temperatur Niederschläge Wind Luftdruck Luftfeuchtigkeit
    00:00 +20°C° 0 mm 1 m/S 751 mmHg 65%
    01:00 +19°C° 0 mm 1 m/S 750 mmHg 66%
    02:00 +19°C° 0 mm 1 m/S 750 mmHg 67%
    03:00 +18°C° 0 mm 2 m/S 750 mmHg 68%
    04:00 +17°C° 0 mm 2 m/S 750 mmHg 69%
    05:00 +17°C° 0 mm 2 m/S 750 mmHg 70%
    06:00 +18°C° 0 mm 2 m/S 750 mmHg 67%
    07:00 +20°C° 0 mm 3 m/S 750 mmHg 64%
    08:00 +21°C° 0 mm 3 m/S 750 mmHg 60%
    09:00 +24°C° 0 mm 3 m/S 750 mmHg 55%
    10:00 +25°C° 0 mm 4 m/S 749 mmHg 49%
    11:00 +27°C° 0 mm 4 m/S 749 mmHg 43%
    12:00 +28°C° 0 mm 5 m/S 749 mmHg 40%
    13:00 +28°C° 0 mm 5 m/S 748 mmHg 38%
    14:00 +29°C° 0 mm 5 m/S 748 mmHg 35%
    15:00 +28°C° 0 mm 4 m/S 748 mmHg 39%
    16:00 +27°C° 0 mm 4 m/S 747 mmHg 43%
    17:00 +26°C° 0 mm 3 m/S 747 mmHg 48%
    18:00 +24°C° 0 mm 3 m/S 747 mmHg 49%
    19:00 +22°C° 0 mm 3 m/S 747 mmHg 50%
    20:00 +21°C° 0 mm 3 m/S 747 mmHg 52%
    21:00 +20°C° 0 mm 3 m/S 747 mmHg 57%
    22:00 +19°C° 0 mm 3 m/S 747 mmHg 61%
    23:00 +18°C° 0 mm 4 m/S 747 mmHg 66%

    23 September, Sonntag

    Zeit Temperatur Niederschläge Wind Luftdruck Luftfeuchtigkeit
    00:00 +17°C° 0.1 mm 4 m/S 746 mmHg 70%
    01:00 +15°C° 0.1 mm 4 m/S 746 mmHg 74%
    02:00 +14°C° 0.1 mm 4 m/S 746 mmHg 78%
    03:00 +13°C° 0.5 mm 5 m/S 746 mmHg 81%
    04:00 +11°C° 0.5 mm 6 m/S 746 mmHg 83%
    05:00 +10°C° 0.5 mm 7 m/S 746 mmHg 86%
    06:00 +9°C° 1.4 mm 6 m/S 747 mmHg 86%
    07:00 +9°C° 1.4 mm 6 m/S 747 mmHg 85%
    08:00 +8°C° 1.4 mm 5 m/S 747 mmHg 85%
    09:00 +9°C° 0.1 mm 5 m/S 748 mmHg 79%
    10:00 +12°C° 0.1 mm 5 m/S 748 mmHg 73%
    11:00 +14°C° 0.1 mm 5 m/S 748 mmHg 67%
    12:00 +15°C° 0.1 mm 5 m/S 748 mmHg 62%
    13:00 +15°C° 0.1 mm 6 m/S 748 mmHg 56%
    14:00 +16°C° 0.1 mm 6 m/S 748 mmHg 51%
    15:00 +16°C° 0.1 mm 5 m/S 748 mmHg 53%
    16:00 +15°C° 0.1 mm 4 m/S 748 mmHg 56%
    17:00 +16°C° 0.1 mm 3 m/S 748 mmHg 58%
    18:00 +14°C° 0 mm 3 m/S 748 mmHg 59%
    19:00 +13°C° 0 mm 3 m/S 749 mmHg 61%
    20:00 +13°C° 0 mm 2 m/S 749 mmHg 63%
    21:00 +13°C° 0 mm 2 m/S 749 mmHg 64%
    22:00 +12°C° 0 mm 2 m/S 749 mmHg 66%
    23:00 +12°C° 0 mm 2 m/S 749 mmHg 68%

    24 September, Montag

    Zeit Temperatur Niederschläge Wind Luftdruck Luftfeuchtigkeit
    00:00 +10°C° 0 mm 2 m/S 749 mmHg 70%
    01:00 +10°C° 0 mm 2 m/S 748 mmHg 72%
    02:00 +9°C° 0 mm 2 m/S 748 mmHg 74%
    03:00 +9°C° 0 mm 2 m/S 748 mmHg 75%
    04:00 +9°C° 0 mm 2 m/S 748 mmHg 75%
    05:00 +9°C° 0 mm 3 m/S 748 mmHg 76%
    06:00 +10°C° 0 mm 3 m/S 747 mmHg 71%
    07:00 +11°C° 0 mm 4 m/S 746 mmHg 67%
    08:00 +12°C° 0 mm 5 m/S 746 mmHg 62%
    09:00 +13°C° 0 mm 6 m/S 745 mmHg 58%
    10:00 +14°C° 0 mm 7 m/S 745 mmHg 54%
    11:00 +15°C° 0 mm 8 m/S 744 mmHg 50%
    12:00 +16°C° 0 mm 8 m/S 743 mmHg 48%
    13:00 +18°C° 0 mm 9 m/S 742 mmHg 45%
    14:00 +19°C° 0 mm 10 m/S 741 mmHg 43%
    15:00 +19°C° 0 mm 9 m/S 740 mmHg 45%
    16:00 +19°C° 0 mm 9 m/S 739 mmHg 48%
    17:00 +19°C° 0 mm 9 m/S 737 mmHg 50%
    18:00 +18°C° 0.9 mm 10 m/S 737 mmHg 56%
    19:00 +18°C° 0.9 mm 10 m/S 736 mmHg 62%
    20:00 +17°C° 0.9 mm 11 m/S 736 mmHg 69%
    21:00 +16°C° 2.4 mm 9 m/S 736 mmHg 73%
    22:00 +13°C° 2.4 mm 8 m/S 736 mmHg 77%
    23:00 +12°C° 2.4 mm 7 m/S 736 mmHg 82%

    25 September, Dienstag

    Zeit Temperatur Niederschläge Wind Luftdruck Luftfeuchtigkeit
    00:00 +11°C° 0.1 mm 7 m/S 736 mmHg 81%
    01:00 +10°C° 0.1 mm 7 m/S 736 mmHg 80%
    02:00 +9°C° 0.1 mm 7 m/S 737 mmHg 80%
    03:00 +9°C° 0 mm 7 m/S 736 mmHg 79%
    04:00 +9°C° 0 mm 8 m/S 736 mmHg 77%
    05:00 +7°C° 0 mm 8 m/S 736 mmHg 76%
    06:00 +8°C° 0 mm 9 m/S 736 mmHg 74%
    07:00 +8°C° 0 mm 10 m/S 736 mmHg 72%
    08:00 +9°C° 0 mm 11 m/S 736 mmHg 69%
    09:00 +9°C° 0.1 mm 10 m/S 737 mmHg 70%
    10:00 +9°C° 0.1 mm 10 m/S 738 mmHg 71%
    11:00 +9°C° 0.1 mm 10 m/S 739 mmHg 71%
    12:00 +9°C° 0.1 mm 10 m/S 739 mmHg 70%
    13:00 +9°C° 0.1 mm 10 m/S 740 mmHg 69%
    14:00 +10°C° 0.1 mm 9 m/S 741 mmHg 68%
    15:00 +10°C° 0 mm 9 m/S 742 mmHg 67%
    16:00 +9°C° 0 mm 8 m/S 742 mmHg 66%
    17:00 +9°C° 0 mm 7 m/S 743 mmHg 66%
    18:00 +9°C° 0 mm 6 m/S 744 mmHg 67%
    19:00 +8°C° 0 mm 5 m/S 744 mmHg 68%
    20:00 +7°C° 0 mm 4 m/S 745 mmHg 69%
    21:00 +7°C° 0 mm 4 m/S 745 mmHg 69%
    22:00 +6°C° 0 mm 4 m/S 746 mmHg 69%
    23:00 +6°C° 0 mm 4 m/S 746 mmHg 69%
    Mehr zeigen